Regional Weather Roundup
Issued by NWS Wilmington, NC

Home | Current Version | Previous Version | Text Only | Print | Product List | Glossary On
Versions: 1 2 3 4 5 6 7 8 9 10 11 12 13 14 15 16 17 18 19 20 21 22 23 24 25 26 27 28 29 30 31 32 33 34 35 36 37 38 39 40 41 42 43 44 45 46 47 48 49 50
000
ASUS42 KILM 121213
RWRILM
RWRILM
REGIONAL HOURLY WEATHER ROUNDUP
NATIONAL WEATHER SERVICE WILMINGTON NC
700 AM EST FRI FEB 12 2016

NOTE: "FAIR" INDICATES FEW OR NO CLOUDS BELOW 12,000 FEET WITH NO
SIGNIFICANT WEATHER AND/OR OBSTRUCTIONS TO VISIBILITY.

...............WFO WILMINGTON COUNTY WARNING AREA...............

......COASTAL NC AND SC COUNTIES......

CITY           SKY/WX    TMP DP  RH WIND       PRES   REMARKS
WILMINGTON     CLOUDY    35  18  49 NE9       30.25S WCI  28
N MYRTLE BEACH CLOUDY    40  28  62 NE12      30.19F WCI  33
MYRTLE BEACH   CLEAR     43  27  52 NE10      30.21S

......INLAND NC AND SC COUNTIES.......

CITY           SKY/WX    TMP DP  RH WIND       PRES   REMARKS
LUMBERTON      CLOUDY    31  12  45 NE10      30.24S WCI  22
ELIZABETHTOWN  CLOUDY    31  12  46 NE3       30.25S
WHITEVILLE     CLOUDY    33  16  49 NE6       30.23S WCI  28
FLORENCE       CLOUDY    32  21  64 NE9       30.22R WCI  24
DARLINGTON     MOCLDY    30  14  51 NE8       30.23F WCI  23
KINGSTREE      FAIR      39  32  75 N5        30.18S
HARTSVILLE     FAIR      32  18  55 NE10      30.21R WCI  24
BENNETTSVILLE  FAIR      32  16  51 NE8       30.24F WCI  25
CONWAY         CLOUDY    37  28  70 NE9       30.20S WCI  31
GEORGETOWN     MOCLDY    46  41  81 NE8       30.17S
MARION         FAIR      34  19  55 NE12      30.21F WCI  25

....................REST OF NORTH CAROLINA......................

.........EASTERN NC.........

CITY           SKY/WX    TMP DP  RH WIND       PRES   REMARKS
CAPE HATTERAS  PTCLDY    35  21  56 NE10      30.28F WCI  27
JACKSONVILLE   MOCLDY    28  12  50 N7        30.28S WCI  21
MOREHEAD CITY  CLOUDY    34  17  50 NE8       30.28S WCI  27
KENANSVILLE    CLOUDY    29  13  51 CALM      30.29R
NEW BERN       CLOUDY    29  17  61 E6        30.29F WCI  23
ELIZABETH CITY PTCLDY    26  16  65 N9        30.32S WCI  17

.........CENTRAL NC.........

CITY           SKY/WX    TMP DP  RH WIND       PRES   REMARKS
RALEIGH DURHAM MOCLDY    26   4  38 E7        30.27S WCI  18
ROCKY MOUNT    CLOUDY    26   9  48 NE7       30.30R WCI  18
ROANOKE RAPIDS NOT AVBL
FAYETTEVILLE   CLOUDY    30   9  41 NE5       30.26R WCI  25
HOFFMAN        MOCLDY    29   7  40 NE7       30.24S WCI  22

.........WESTERN NC.........

CITY           SKY/WX    TMP DP  RH WIND       PRES   REMARKS
CHARLOTTE      CLOUDY    31   6  35 E7        30.20F WCI  24
GREENSBORO     MOCLDY    24   5  44 NE6       30.22S WCI  17
HICKORY        NOT AVBL
BOONE          NOT AVBL
ASHEVILLE      NOT AVBL

.....................REST OF SOUTH CAROLINA.....................

.........EASTERN SC.........

CITY           SKY/WX    TMP DP  RH WIND       PRES   REMARKS
CHARLESTON     MOCLDY    45  36  70 CALM      30.16R
BEAUFORT MCAS  CLOUDY    44  42  93 CALM      30.15S
HILTON HEAD    CLEAR     50  48  93 SW5       30.17R

.........CENTRAL SC.........

CITY           SKY/WX    TMP DP  RH WIND       PRES   REMARKS
COLUMBIA       CLOUDY    37  26  64 NE5       30.17F WCI  33
ORANGEBURG     CLOUDY    41  33  73 NE5       30.16R
SUMTER SHAW    CLOUDY    34  28  77 NE9       30.16F WCI  27

.........WESTERN SC.........

CITY           SKY/WX    TMP DP  RH WIND       PRES   REMARKS
GREENVILLE     NOT AVBL
ROCK HILL      PTCLDY    30  10  43 E7        30.20F WCI  23
ANDERSON       MOCLDY    34  18  52 NE5       30.17R WCI  30
CLEMSON        NOT AVBL
GREENWOOD      PTCLDY    31  22  69 NE5       30.19R WCI  26


...................COASTAL AND OFFSHORE REPORTS..................

................LOCAL PIERS AND NC RESERVE................


STATION/POSITION TIME  SKY/WX   TEMP    WIND        PRES    VSBY
                                AIR SEA DIR/SP/G
                 (UTC)          (F)     (DEG/KT/KT) (MB)    (MI)
JOHNY MRCER PIER 1100            39 51   40/ 21/ 25 1022.7
NC RESRV MASNBRO NOT AVBL
OCEAN CREST PIER NOT AVBL
SPRINGMAID  PIER 1100            44 48   20/ 16/ 18 1021.7


................COASTAL AND OFFSHORE BUOYS................


STATION/POSITION TIME  SKY/WX   TEMP    WIND        PRES    VSBY
                                AIR SEA DIR/SP/G
                 (UTC)          (F)     (DEG/KT/KT) (MB)    (MI)
DIMNDSHOAL 41025 1150            40 60   20/ 14/ 17 1025.1F
WVE H/P(F/S)=  3/ 7 SWL H/P/D(F/S/D)=  2/ 90/ 7

CAPE LOOKOUT     NOT AVBL
ONSLOW BAY 41036 NOT AVBL
ONSLOW BAY 41064 1108            46 58              1023.3F
ONSLOW BAY 41159 1125               58                N/A
WVE H/P(F/S)=  3/ 4

5SE WRITBC 41038 1108            43 50   60/ 19/ 25 1023.5F
MASNBO INL 41110 1106               50                N/A
WVE H/P(F/S)=  3/ 4

WILM HARBR 41108 1126               50                N/A
WVE H/P(F/S)=  2/ 5

27SE WRITB 41037 1108            49 62   80/ 14/ 21 1021.0F
FRYING PAN 41013 1100            52 57   60/ 12/ 16 1022.3F
SUNST NRSH 41024 NOT AVBL
CAPRS NRSH 41029 1108            51      70/ 10/ 16 1020.7F
EDISTO     41004 1150            59 69  230/ 16/ 19 1020.7R
WVE H/P(F/S)=  3/ 6 SWL H/P/D(F/S/D)=  2/10



..........OFFSHORE BUOYS BEYOND 100 NM OFFSHORE...........
.....IN A TRIANGLE---HAT TO BERMUDA TO BAHAMAS TO HAT.....


STATION/POSITION TIME  SKY/WX   TEMP    WIND        PRES    VSBY
                                AIR SEA DIR/SP/G
                 (UTC)          (F)     (DEG/KT/KT) (MB)    (MI)
150E HAT   41001 1100            48 69  310/ 12/ 17 1025.3S
W BERMUDA  41048 1150            59 69  320/ 17/ 23 1025.4R
WVE H/P(F/S)= 11/10 SWL H/P/D(F/S/D)=  8/300/10

ATLANTIC S 41049 1150            70 74  340/  8/ 12 1024.3R
WVE H/P(F/S)= 10/12 SWL H/P/D(F/S/D)= 10/280/12

E BAHAMAS  41046 1150            74 79   50/ 17/ 21 1022.6R
WVE H/P(F/S)=  9/11 SWL H/P/D(F/S/D)=  7/320/11

NE BAHAMAS 41047 1150            67 75   20/ 10/ 14 1025.9R
WVE H/P(F/S)=  7/10 SWL H/P/D(F/S/D)=  7/330/10

120E CANVRL41010 1120            68 72              1025.3R

END



USA.gov is the U.S. government's official web portal to all federal, state and local government web resources and services.